Flag for Germany Weather past 2 weeks in Lohmar, North Rhine-Westphalia, Germany

Now
39 °F

Sprinkles. Passing clouds.


Feels Like: 35 °F
Forecast: 38 / 45 °F
Wind: 6 mph from Northwest

Location: Koeln / Bonn

Current Time: Mar 4, 2015 at 10:07:24 PM

Latest Report: Mar 4, 2015 at 9:20 PM


Visibility: N/A

Pressure: 30.42 "Hg

Humidity: 87%

Dew point: 36 °F

Location of LohmarLocation

Historic Weather in Lohmar — Graph

°F

Lohmar temperature yesterday

Maximum temperature yesterday: 50 °F (at 2:50 PM)
Minimum temperature yesterday: 34 °F (at 5:20 AM)
Average temperature yesterday: 40 °F

Past Weeks' High & Low Weather Summary

 TemperatureHumidityPressure
High54 °F (Mar 1, 1:20 PM)100% (Feb 17, 8:20 PM)30.77 "Hg (Feb 17, 8:20 PM)
Low28 °F (Feb 28, 4:20 AM)40% (Feb 28, 3:50 PM)29.39 "Hg (Feb 21, 4:20 AM)
Average40 °F79%29.95 "Hg
* Reported Feb 17 8:20 PM — Mar 4 8:50 PM, Lohmar, Weather by CustomWeather, © 2015

Note: Actual official high and low records may vary slightly from our data, if they occured in-between our weather recording intervals... More about our weather records

Advertising

Lohmar weather history for previous 24 hours

 ConditionsComfort  
Time TempWeatherWind HumidityBarometerVisibility
8:50 PM
Wed, Mar 4
37 °FSprinkles. Passing clouds.5 mph93%30.39 "HgN/A
8:20 PM37 °FSprinkles. Partly cloudy.7 mph93%30.39 "HgN/A
7:50 PM39 °FSprinkles. Partly cloudy.16 mph87%30.39 "HgN/A
7:20 PM41 °FSprinkles. Partly cloudy.14 mph76%30.36 "HgN/A
6:50 PM41 °FPassing clouds.13 mph76%30.36 "HgN/A
6:20 PM41 °FPassing clouds.21 mph76%30.36 "HgN/A
5:50 PM43 °FPassing clouds.13 mph71%30.33 "HgN/A
5:20 PM43 °FPassing clouds.17 mph71%30.30 "HgN/A
4:50 PM41 °FSprinkles. Scattered clouds.12 mph81%30.30 "HgN/A
4:20 PM41 °FSnow showers. Broken clouds.18 mph70%30.30 "HgN/A
3:50 PM45 °FSprinkles. Scattered clouds.21 mph57%30.27 "HgN/A
3:20 PM46 °FSprinkles. Scattered clouds.20 mph57%30.27 "HgN/A
2:50 PM45 °FSprinkles. Scattered clouds.13 mph66%30.27 "HgN/A
2:20 PM45 °FSprinkles. Partly sunny.14 mph61%30.27 "HgN/A
1:50 PM43 °FSprinkles. Broken clouds.17 mph71%30.27 "HgN/A
1:20 PM45 °FScattered clouds.16 mph66%30.27 "HgN/A
12:50 PM45 °FPassing clouds.16 mph71%30.27 "HgN/A
12:20 PM45 °FScattered clouds.15 mph71%30.27 "HgN/A
11:50 AM41 °FPartly sunny.14 mph76%30.27 "HgN/A
11:20 AM43 °FPartly sunny.14 mph71%30.27 "HgN/A
10:50 AM41 °FPartly sunny.14 mph76%30.27 "HgN/A
10:20 AM39 °FPartly sunny.13 mph81%30.24 "HgN/A
9:50 AM39 °FPartly sunny.13 mph75%30.24 "HgN/A
9:20 AM39 °FPassing clouds.12 mph75%30.24 "HgN/A
8:50 AM36 °FPassing clouds.8 mph87%30.24 "HgN/A
8:20 AM36 °FScattered clouds.7 mph81%30.24 "HgN/A
7:50 AM36 °FScattered clouds.6 mph81%30.21 "HgN/A
7:20 AM36 °FSunny.9 mph81%30.21 "Hg10 mi
6:50 AM36 °FClear.8 mph81%30.18 "Hg10 mi
6:20 AM34 °FClear.9 mph87%30.18 "Hg10 mi
5:50 AM34 °FClear.8 mph93%30.18 "Hg10 mi
5:20 AM36 °FClear.8 mph87%30.18 "Hg10 mi
4:50 AM36 °FClear.10 mph87%30.18 "Hg10 mi
4:20 AM36 °FPassing clouds.9 mph87%30.15 "HgN/A
3:50 AM36 °FPassing clouds.9 mph81%30.15 "HgN/A
3:20 AM36 °FClear.9 mph81%30.15 "Hg10 mi
2:50 AM36 °FClear.9 mph81%30.15 "Hg10 mi
2:20 AM36 °FClear.7 mph81%30.15 "Hg10 mi
1:50 AM37 °FClear.12 mph81%30.12 "Hg10 mi
1:20 AM36 °FPassing clouds.7 mph93%30.12 "HgN/A
12:50 AM36 °FPassing clouds.7 mph87%30.12 "HgN/A
12:20 AM37 °FPassing clouds.9 mph87%30.12 "HgN/A
11:50 PM
Tue, Mar 3
37 °FScattered showers. Passing clouds.10 mph87%30.09 "HgN/A
11:20 PM37 °FSprinkles. Partly cloudy.9 mph87%30.09 "HgN/A
10:50 PM37 °FLight rain. Partly cloudy.8 mph87%30.09 "HgN/A
10:20 PM39 °FPartly cloudy.13 mph81%30.09 "HgN/A
Weather by CustomWeather, © 2015

See weather overviewHow to use our weather pages